TimePST,TemperatureF,Dew PointF,Humidity,Sea Level PressureIn,VisibilityMPH,Wind Direction,Wind SpeedMPH,Gust SpeedMPH,PrecipitationIn,Events,Conditions,WindDirDegrees,DateUTC
12:15 AM,3.2,-0.4,85,29.97,10.0,North,3.5,-,N/A,,Overcast,360,2013-12-06 08:15:00
12:35 AM,6.8,1.4,79,29.96,10.0,Calm,Calm,-,N/A,,Mostly Cloudy,0,2013-12-06 08:35:00
12:55 AM,3.2,-0.4,85,29.96,10.0,Calm,Calm,-,N/A,,Mostly Cloudy,0,2013-12-06 08:55:00
1:15 AM,1.4,-0.4,92,29.95,10.0,South,3.5,-,N/A,,Mostly Cloudy,170,2013-12-06 09:15:00
1:35 AM,3.2,-0.4,85,29.95,10.0,NNW,4.6,-,N/A,,Clear,330,2013-12-06 09:35:00
1:55 AM,1.4,-0.4,92,29.96,10.0,Calm,Calm,-,N/A,,Clear,0,2013-12-06 09:55:00
2:15 AM,-0.4,-2.2,92,29.95,10.0,SSE,3.5,-,N/A,,Clear,150,2013-12-06 10:15:00
2:35 AM,1.4,-0.4,92,29.95,10.0,Calm,Calm,-,N/A,,Mostly Cloudy,0,2013-12-06 10:35:00
2:55 AM,3.2,-0.4,85,29.96,10.0,Calm,Calm,-,N/A,,Overcast,0,2013-12-06 10:55:00
3:15 AM,1.4,-0.4,92,29.95,10.0,SSE,3.5,-,N/A,,Mostly Cloudy,160,2013-12-06 11:15:00
3:35 AM,1.4,-2.2,85,29.96,10.0,Calm,Calm,-,N/A,,Mostly Cloudy,0,2013-12-06 11:35:00
3:55 AM,3.2,-0.4,85,29.96,10.0,South,4.6,-,N/A,,Overcast,170,2013-12-06 11:55:00
4:15 AM,5.0,-0.4,78,29.95,10.0,SW,3.5,-,N/A,,Overcast,220,2013-12-06 12:15:00
4:35 AM,5.0,1.4,85,29.94,10.0,North,3.5,-,N/A,,Overcast,360,2013-12-06 12:35:00
4:55 AM,5.0,1.4,85,29.94,10.0,Calm,Calm,-,N/A,,Scattered Clouds,0,2013-12-06 12:55:00
5:15 AM,3.2,-0.4,85,29.94,10.0,WNW,3.5,-,N/A,,Scattered Clouds,290,2013-12-06 13:15:00
5:35 AM,5.0,1.4,85,29.94,10.0,Calm,Calm,-,N/A,,Partly Cloudy,0,2013-12-06 13:35:00
6:50 AM,5.0,1.4,85,29.97,10.0,Calm,Calm,-,N/A,,Scattered Clouds,0,2013-12-06 14:50:00
7:50 AM,5.0,1.4,85,29.98,10.0,Calm,Calm,-,N/A,,Scattered Clouds,0,2013-12-06 15:50:00
8:45 AM,10.4,6.8,85,29.98,10.0,Calm,Calm,-,N/A,,Scattered Clouds,0,2013-12-06 16:45:00
9:45 AM,19.4,8.6,63,29.98,10.0,Calm,Calm,-,N/A,,Partly Cloudy,0,2013-12-06 17:45:00
10:50 AM,24.8,1.4,36,29.97,10.0,Calm,Calm,-,N/A,,Mostly Cloudy,0,2013-12-06 18:50:00
11:55 AM,28.4,5.0,37,29.97,10.0,NNE,3.5,-,N/A,,Overcast,20,2013-12-06 19:55:00
12:45 PM,28.4,1.4,31,29.96,10.0,SW,5.8,-,N/A,,Overcast,220,2013-12-06 20:45:00
1:55 PM,26.6,3.2,37,29.93,10.0,South,4.6,-,N/A,,Overcast,180,2013-12-06 21:55:00
2:45 PM,26.6,5.0,40,29.89,10.0,South,10.4,-,N/A,,Overcast,180,2013-12-06 22:45:00
3:50 PM,26.6,5.0,40,29.91,10.0,SSE,4.6,-,N/A,,Overcast,160,2013-12-06 23:50:00
4:45 PM,23.0,10.4,59,29.88,6.0,SSW,9.2,-,N/A,,Overcast,210,2013-12-07 00:45:00
4:55 PM,23.0,12.2,63,29.88,6.0,SSW,12.7,21.9,N/A,,Haze,200,2013-12-07 00:55:00
5:15 PM,23.0,12.2,63,29.86,4.0,South,12.7,26.5,N/A,,Overcast,190,2013-12-07 01:15:00
5:35 PM,21.2,14.0,74,29.86,2.5,South,9.2,-,N/A,Snow,Light Snow,190,2013-12-07 01:35:00
5:55 PM,21.2,14.0,74,29.85,4.0,South,12.7,18.4,N/A,,Haze,190,2013-12-07 01:55:00
6:15 PM,21.2,14.0,74,29.85,3.0,South,11.5,-,N/A,,Haze,170,2013-12-07 02:15:00
6:35 PM,21.2,14.0,74,29.83,3.0,SSW,11.5,-,N/A,Snow,Light Snow,200,2013-12-07 02:35:00
6:55 PM,23.0,15.8,74,29.82,2.5,SSW,10.4,16.1,N/A,Snow,Light Snow,210,2013-12-07 02:55:00
7:15 PM,23.0,17.6,80,29.81,1.5,SSW,10.4,17.3,N/A,Snow,Light Snow,210,2013-12-07 03:15:00
7:35 PM,23.0,17.6,80,29.81,1.5,South,10.4,16.1,N/A,Snow,Light Snow,190,2013-12-07 03:35:00
7:55 PM,23.0,19.4,86,29.79,1.0,SSW,9.2,-,N/A,Snow,Light Snow,210,2013-12-07 03:55:00
8:15 PM,23.0,19.4,86,29.78,0.5,SSW,12.7,17.3,N/A,Snow,Snow,200,2013-12-07 04:15:00
8:35 PM,23.0,19.4,86,29.76,0.8,SW,11.5,19.6,N/A,Snow,Light Snow,220,2013-12-07 04:35:00
8:55 PM,23.0,19.4,86,29.76,0.8,SSW,16.1,23.0,N/A,Snow,Light Snow,200,2013-12-07 04:55:00
9:15 PM,23.0,21.2,93,29.74,0.2,SSW,12.7,-,0.01,Snow,Heavy Snow,200,2013-12-07 05:15:00
9:35 PM,24.8,21.2,86,29.72,0.5,SSW,9.2,17.3,0.01,Snow,Snow,210,2013-12-07 05:35:00
9:55 PM,24.8,21.2,86,29.71,0.8,SSW,9.2,17.3,0.01,Snow,Light Snow,210,2013-12-07 05:55:00
10:15 PM,24.8,21.2,86,29.71,0.8,SSW,9.2,-,0.01,Snow,Light Snow,210,2013-12-07 06:15:00
10:35 PM,24.8,21.2,86,29.70,0.2,SSW,10.4,21.9,0.02,Snow,Heavy Snow,200,2013-12-07 06:35:00
10:55 PM,24.8,21.2,86,29.68,0.2,SSW,16.1,23.0,0.03,Snow,Heavy Snow,210,2013-12-07 06:55:00
11:15 PM,24.8,21.2,86,29.67,0.2,SSW,12.7,24.2,0.02,Snow,Heavy Snow,200,2013-12-07 07:15:00
11:35 PM,24.8,21.2,86,29.66,0.2,SW,9.2,23.0,0.03,Snow,Heavy Snow,220,2013-12-07 07:35:00
11:55 PM,24.8,21.2,86,29.65,0.8,South,5.8,-,0.05,Snow,Light Snow,190,2013-12-07 07:55:00